Location: Catacaguana
(10.4120°N, 66.7591°W)
Time: 07:27:57
(UTC+00:00)

Hubble Space Telescope - Pass Details

Date: 27 May 2022
Orbit: 532 x 536 km, 28.5° (Epoch: 28 June)

Event Time Altitude Azimuth Distance (km) Brightness Sun altitude
Exits shadow 09:40:07 - 236° (SW) 2,003 3.0 -6.3°
Reaches altitude 10° 09:40:42 10° 235° (SW) 1,774 2.8 -6.2°
Maximum altitude 09:44:47 70° 152° (SSE) 564 0.9 -5.2°
Drops below altitude 10° 09:48:52 10° 67° (ENE) 1,773 5.4 -4.3°
Sets 09:51:08 0° 65° (ENE) 2,662 7.6 -3.8°
